User: anonymous   Login
Location: Albany
(35.0000°S, 118.0000°E)
Time: 16:29:18
(UTC-04:00)
Language:

Radarsat Rocket - Orbit

View from above orbital plane
View from above orbital plane
View from above satellite
View from above satellite

Ground track
Ground track

The orbit data is extracted from the following two-line orbital elements,

1 23711U 95059B   16271.98582741 -.00000010  00000-0  68757-4 0  9992
2 23711 100.5363 257.6059 0367829 191.6064 233.5729 13.12688285  1398
Epoch (UTC): 27 September 2016 23:39:35
Eccentricity: 0.0367829
inclination: 100.5363°
perigee height: 933 km
apogee height: 1492 km
right ascension of ascending node: 257.6059°
argument of perigee: 191.6064°
revolutions per day: 13.12688285
mean anomaly at epoch: 233.5729°
orbit number at epoch: 139

The dashed part of the orbit path shows where the satellite is in the earth's shadow,  

DLR